TimeIST,TemperatureF,Dew PointF,Humidity,Sea Level PressureIn,VisibilityMPH,Wind Direction,Wind SpeedMPH,Gust SpeedMPH,PrecipitationIn,Events,Conditions,WindDirDegrees,DateUTC
12:00 AM,78.8,73.4,83,29.71,2.8,Calm,Calm,-,N/A,,Haze,0,2012-10-02 18:30:00
1:00 AM,78.8,73.4,83,29.71,2.5,Calm,Calm,-,N/A,,Haze,0,2012-10-02 19:30:00
2:00 AM,78.8,73.4,83,29.68,2.5,Calm,Calm,-,N/A,,Haze,0,2012-10-02 20:30:00
3:00 AM,77.0,73.4,89,29.68,2.5,Calm,Calm,-,N/A,,Haze,0,2012-10-02 21:30:00
4:00 AM,77.0,73.4,89,29.65,2.5,Calm,Calm,-,N/A,,Haze,0,2012-10-02 22:30:00
6:00 AM,75.2,73.4,94,29.68,1.2,Calm,Calm,-,N/A,,Mist,0,2012-10-03 00:30:00
6:30 AM,75.2,73.4,94,29.68,1.2,Calm,Calm,-,N/A,,Mist,0,2012-10-03 01:00:00
7:00 AM,75.2,73.4,94,29.68,1.2,Calm,Calm,-,N/A,,Mist,0,2012-10-03 01:30:00
7:30 AM,78.8,73.4,83,29.71,1.2,Calm,Calm,-,N/A,,Mist,0,2012-10-03 02:00:00
8:30 AM,82,76,78,29.73,1,Calm,Calm,,,,Mist,,2012-10-03 03:00:00
8:30 AM,82.4,77.0,84,29.71,1.2,Calm,Calm,-,N/A,,Mist,0,2012-10-03 03:00:00
9:00 AM,84.2,77.0,79,29.71,1.2,Calm,Calm,-,N/A,,Mist,0,2012-10-03 03:30:00
9:30 AM,86.0,75.2,70,29.71,1.6,Calm,Calm,-,N/A,,Mist,0,2012-10-03 04:00:00
10:30 AM,89.6,75.2,62,29.71,1.9,Variable,2.3,-,N/A,,Haze,0,2012-10-03 05:00:00
11:00 AM,91.4,77.0,63,29.71,2.5,Variable,2.3,-,N/A,,Haze,0,2012-10-03 05:30:00
11:30 AM,92,77,54,29.69,2,,2.3,,,,Haze,,2012-10-03 06:00:00
11:30 AM,91.4,77.0,63,29.68,2.5,Variable,2.3,-,N/A,,Haze,0,2012-10-03 06:00:00
12:00 PM,91.4,77.0,63,29.68,2.5,Variable,2.3,-,N/A,,Haze,0,2012-10-03 06:30:00
12:30 PM,93.2,75.2,56,29.65,2.5,WSW,3.5,-,N/A,,Haze,250,2012-10-03 07:00:00
2:00 PM,95.0,75.2,53,29.59,3.7,Variable,3.5,-,N/A,,Scattered Clouds,0,2012-10-03 08:30:00
2:30 PM,94,78,51,29.60,2,,3.5,,,,Partly Cloudy,,2012-10-03 09:00:00
2:30 PM,93.2,75.2,56,29.59,3.7,Variable,3.5,-,N/A,,Scattered Clouds,0,2012-10-03 09:00:00
3:00 PM,93.2,77.0,59,29.56,3.7,West,3.5,-,N/A,,Partly Cloudy,260,2012-10-03 09:30:00
4:00 PM,93.2,77.0,59,29.56,3.7,NNW,4.6,-,N/A,,Scattered Clouds,330,2012-10-03 10:30:00
4:30 PM,91.4,75.2,59,29.56,3.7,NNW,3.5,-,N/A,,Mostly Cloudy,330,2012-10-03 11:00:00
5:30 PM,89.6,75.2,62,29.56,3.1,Variable,2.3,-,N/A,,Haze,0,2012-10-03 12:00:00
6:00 PM,87.8,75.2,66,29.56,2.8,Variable,2.3,-,N/A,,Haze,0,2012-10-03 12:30:00
6:30 PM,86.0,75.2,70,29.59,2.5,Variable,2.3,-,N/A,,Haze,0,2012-10-03 13:00:00
8:00 PM,82.4,75.2,79,29.62,2.2,Calm,Calm,-,N/A,,Haze,0,2012-10-03 14:30:00
8:30 PM,81,75,77,29.63,1,Calm,Calm,,,,Haze,,2012-10-03 15:00:00
9:00 PM,80.6,75.2,84,29.62,1.9,Calm,Calm,-,N/A,,Haze,0,2012-10-03 15:30:00
10:00 PM,80.6,75.2,84,29.65,1.9,Calm,Calm,-,N/A,,Haze,0,2012-10-03 16:30:00
11:00 PM,80.6,75.2,84,29.62,1.9,Calm,Calm,-,N/A,,Mist,0,2012-10-03 17:30:00
11:30 PM,79,75,85,29.65,1,Calm,Calm,,,,Mist,,2012-10-03 18:00:00